Weather History for Grand Island, NE

Change the Weather History Date:

Tuesday, May 21, 2013

  Actual Average Record
Temperature  
Mean Temperature 56 °F 63 °F  
Max Temperature 62 °F 74 °F 95 °F (1934)
Min Temperature 49 °F 51 °F 33 °F (1963)
Degree Days  
Heating Degree Days 9 4  
Month to date heating degree days 171 141  
Since 1 July heating degree days 6097 6143  
Cooling Degree Days 0 2  
Month to date cooling degree days 55 27  
Year to date cooling degree days 61 38  
Growing Degree Days 6 (Base 50)    
Moisture  
Dew Point 47 °F    
Average Humidity 69    
Maximum Humidity 83    
Minimum Humidity 55    
Precipitation  
Precipitation T in 0.16 in 2.93 in (1961)
Month to date precipitation 2.24 2.89  
Year to date precipitation 8.84 8.43  
Snow  
Snow 0.00 in 0.00 in - ()
Month to date snowfall 0.7 0.1  
Since 1 July snowfall 35.2 29.1  
Snow Depth 0.00 in    
Sea Level Pressure  
Sea Level Pressure 29.75 in    
Wind  
Wind Speed 18 mph (WNW)    
Max Wind Speed 29 mph    
Max Gust Speed 38 mph    
Visibility 10 miles    
Events      
T = Trace of Precipitation, MM = Missing Value Source: NWS Daily Summary

Daily Weather History Graph

Daily Weather History Graph

Search for Another Location

Airport:

Trip Planner

Search our weather history database for the weather conditions in past years. The results will help you decide how hot, cold, wet, or windy it might be!

Date:

Astronomy

May. 21, 2013 Rise Set
Actual Time 6:10 AM CDT 8:50 PM CDT
Civil Twilight 5:38 AM CDT 9:22 PM CDT
Nautical Twilight 4:58 AM CDT 10:02 PM CDT
Astronomical Twilight 4:13 AM CDT 10:47 PM CDT
Moon 5:03 PM CDT (5/21) 3:40 AM CDT (5/21)
Length of Visible Light 15h 43m
Length of Day
14h 40m
Waxing Gibbous, 84% of the Moon is Illuminated
May 21
Waxing Gibbous
May 24
Full
May 31
Last Quarter
Jun 8
New
Jun 16
First Quarter

Hourly Weather History & Observations

Time (CDT) Temp. Dew Point Humidity Pressure Visibility Wind Dir Wind Speed Gust Speed Precip Events Conditions
12:53 AM 57.0 °F 51.1 °F 81% 29.69 in 10.0 mi WNW 13.8 mph - N/A   Overcast
1:53 AM 55.9 °F 48.9 °F 77% 29.70 in 10.0 mi West 15.0 mph - N/A   Scattered Clouds
2:53 AM 55.0 °F 48.9 °F 80% 29.70 in 10.0 mi West 17.3 mph - N/A   Overcast
3:53 AM 54.0 °F 46.0 °F 75% 29.70 in 10.0 mi WNW 19.6 mph 25.3 mph N/A   Mostly Cloudy
4:53 AM 54.0 °F 46.0 °F 75% 29.70 in 10.0 mi West 13.8 mph 20.7 mph N/A   Overcast
5:18 AM 51.8 °F 44.6 °F 76% 29.72 in 10.0 mi West 11.5 mph - N/A   Scattered Clouds
5:53 AM 51.1 °F 45.0 °F 80% 29.70 in 10.0 mi West 11.5 mph - N/A   Clear
6:53 AM 51.1 °F 45.0 °F 80% 29.72 in 10.0 mi WSW 15.0 mph - N/A   Clear
7:53 AM 54.0 °F 46.9 °F 77% 29.74 in 10.0 mi West 17.3 mph 24.2 mph N/A   Scattered Clouds
8:53 AM 55.0 °F 44.1 °F 67% 29.75 in 10.0 mi WNW 21.9 mph 31.1 mph N/A   Overcast
9:53 AM 55.9 °F 44.1 °F 64% 29.74 in 10.0 mi WNW 21.9 mph 32.2 mph N/A   Overcast
10:53 AM 57.0 °F 43.0 °F 59% 29.73 in 10.0 mi NW 21.9 mph 29.9 mph N/A   Overcast
11:53 AM 57.9 °F 44.1 °F 60% 29.73 in 10.0 mi WNW 24.2 mph 32.2 mph N/A   Overcast
12:53 PM 59.0 °F 44.1 °F 58% 29.72 in 10.0 mi WNW 25.3 mph 35.7 mph N/A   Overcast
1:53 PM 60.1 °F 45.0 °F 57% 29.74 in 10.0 mi WNW 20.7 mph - N/A   Overcast
2:53 PM 61.0 °F 46.0 °F 58% 29.73 in 10.0 mi NW 20.7 mph 28.8 mph N/A   Overcast
3:53 PM 60.1 °F 46.9 °F 62% 29.75 in 10.0 mi NW 19.6 mph 24.2 mph N/A   Overcast
4:53 PM 60.1 °F 48.0 °F 64% 29.74 in 10.0 mi NNW 12.7 mph - N/A   Overcast
5:53 PM 59.0 °F 48.0 °F 67% 29.77 in 10.0 mi NW 10.4 mph - N/A   Overcast
6:53 PM 59.0 °F 48.0 °F 67% 29.76 in 10.0 mi NNW 18.4 mph 24.2 mph N/A   Overcast
7:33 PM 57.2 °F 48.2 °F 72% 29.78 in 10.0 mi WNW 18.4 mph 24.2 mph N/A   Overcast
7:53 PM 55.9 °F 50.0 °F 80% 29.78 in 10.0 mi WNW 15.0 mph - N/A   Overcast
8:29 PM 55.4 °F 48.2 °F 77% 29.80 in 10.0 mi NW 16.1 mph 26.5 mph N/A   Overcast
8:53 PM 55.0 °F 48.0 °F 77% 29.81 in 10.0 mi NW 17.3 mph - N/A   Overcast
9:49 PM 53.6 °F 48.2 °F 82% 29.81 in 10.0 mi NW 13.8 mph - 0.00 in   Overcast
9:53 PM 54.0 °F 48.0 °F 80% 29.81 in 10.0 mi NW 16.1 mph - 0.00 in   Overcast
10:16 PM 53.6 °F 46.4 °F 77% 29.80 in 10.0 mi NNW 21.9 mph 29.9 mph N/A   Overcast
10:53 PM 51.1 °F 46.0 °F 83% 29.79 in 10.0 mi NW 20.7 mph 28.8 mph N/A   Partly Cloudy
11:53 PM 50.0 °F 45.0 °F 83% 29.80 in 10.0 mi NW 17.3 mph - N/A   Clear